Regional Weather Roundup
Issued by NWS

Home | Current Version | Previous Version | Graphics & Text | Print | Product List | Glossary On
Versions: 1 2 3 4 5 6 7 8 9 10 11 12 13 14 15 16 17 18 19 20 21 22 23 24 25 26 27 28 29 30 31 32 33 34 35 36 37 38 39 40 41 42 43 44 45 46 47 48 49 50
000
ASUS43 KLSX 240707
RWRMO

WEATHER SUMMARY FOR MISSOURI
NATIONAL WEATHER SERVICE SPRINGFIELD MO
200 AM CDT THU JUL 24 2014

NOTE: "FAIR" INDICATES FEW OR NO CLOUDS BELOW 12,000 FEET WITH NO
       SIGNIFICANT WEATHER AND/OR OBSTRUCTIONS TO VISIBILITY.
       CURRENT SKY AND/OR WEATHER CONDITIONS ARE NOT AVAILABLE FOR
       CHILLICOTHE AND FARMINGTON.

MOZ001>031-035>038-043-044-053-054-240800-
...NORTHERN AND WESTERN MISSOURI...

CITY           SKY/WX    TMP DP  RH WIND       PRES   REMARKS
KANSAS CTY INT PTCLDY    70  61  73 E8        30.14F
KANSAS C DTWN  CLEAR     72  62  71 E7        30.13F
LEE`S SUMMIT   CLEAR     70  61  73 NE9       30.14F
ST JOSEPH      CLEAR     70  61  73 E5        30.15S
CHILLICOTHE      N/A     63  59  87 CALM      30.16S
KIRKSVILLE     CLEAR     58  56  93 CALM      30.16S

$$
MOZ066>068-077>081-088>096-101>105-240800-
...SOUTHWEST MISSOURI...

CITY           SKY/WX    TMP DP  RH WIND       PRES   REMARKS
SPRINGFIELD    CLEAR     71  65  81 NE6       30.09S
JOPLIN         CLEAR     71  66  84 NE6       30.08F

$$
MOZ032>034-039>042-045>050-055>058-069>072-240800-
...CENTRAL MISSOURI...

CITY           SKY/WX    TMP DP  RH WIND       PRES   REMARKS
COLUMBIA       CLEAR     64  59  83 NE5       30.13S
JEFFERSON CITY CLEAR     68  60  75 NE5       30.11S
ROLLA          CLEAR     65  59  81 NE7       30.10S
SEDALIA        CLEAR     67  61  81 NE5       30.13S
WHITEMAN AFB   CLEAR     66  55  69 NE2       30.12S
OSAGE BEACH    CLEAR     68  61  77 NE6       30.11S

$$
MOZ051-052-059>065-240800-
...EAST CENTRAL MISSOURI...

CITY           SKY/WX    TMP DP  RH WIND       PRES   REMARKS
ST LOUIS INTL  CLEAR     66  52  60 E6        30.11F
SPIRIT OF STL  CLEAR     62  56  80 CALM      30.10S
ST CHARLES     CLEAR     64  55  72 NE5       30.10F

$$
MOZ072>076-082>087-097>100-106>115-240800-
...SOUTH CENTRAL AND SOUTHEAST MISSOURI...

CITY           SKY/WX    TMP DP  RH WIND       PRES   REMARKS
CAPE GIRARDEAU CLEAR     66  58  75 N7        30.05S
FARMINGTON     CLEAR     64  55  72 NE8       30.11F
POPLAR BLUFF   PTCLDY    71  59  65 NE12G20   30.03F
WEST PLAINS    CLEAR     69  66  90 NE6       30.09R

$$


USA.gov is the U.S. government's official web portal to all federal, state and local government web resources and services.